Flag for Norway Weather past 2 weeks in Larvik, Norway

Now
61 °F

Light rain. Mostly cloudy.


Feels Like: 61 °F
Forecast: 60 / 73 °F
Wind: 7 mph from North

Location: Torp

Current Time: Jul 6, 2015 at 5:58:14 AM

Latest Report: Jul 6, 2015 at 5:20 AM


Visibility: 2 mi

Pressure: 29.68 "Hg

Humidity: 100%

Dew point: 61 °F

Location of LarvikLocation

Historic Weather in Larvik — Graph

°F

Larvik temperature yesterday

Maximum temperature yesterday: 73 °F (at 3:50 PM)
Minimum temperature yesterday: 57 °F (at 12:20 AM)
Average temperature yesterday: 65 °F

Past Weeks' High & Low Weather Summary

 TemperatureHumidityPressure
High73 °F (Jul 1, 2:50 PM)100% (Jun 21, 5:50 AM)30.36 "Hg (Jun 21, 5:50 AM)
Low46 °F (Jun 25, 3:20 AM)39% (Jun 25, 6:50 PM)29.65 "Hg (Jun 22, 6:50 PM)
Average60 °F76%29.97 "Hg
* Reported Jun 21 4:20 AM — Jul 6 4:20 AM, Larvik, Weather by CustomWeather, © 2015

Note: Actual official high and low records may vary slightly from our data, if they occured in-between our weather recording intervals... More about our weather records

Advertising

Larvik weather history for previous 24 hours

 ConditionsComfort  
Time TempWeatherWind HumidityBarometerVisibility
4:20 AM
Mon, Jul 6
61 °FRain. Dense fog.6 mph100%29.74 "Hg1 mi
3:50 AM61 °FLight rain. Passing clouds.7 mph100%29.74 "Hg1 mi
3:20 AM61 °FLight rain. Overcast.6 mph100%29.77 "Hg1 mi
2:50 AM61 °FDrizzle. Overcast.5 mph100%29.80 "Hg1 mi
2:20 AM61 °FPassing clouds.3 mph100%29.80 "Hg1 mi
1:50 AM61 °FLight rain. Passing clouds.2 mph100%29.83 "Hg1 mi
1:20 AM61 °FPassing clouds.7 mph100%29.86 "Hg1 mi
12:50 AM61 °FDense fog.13 mph100%29.86 "Hg1 mi
12:20 AM63 °FFog.9 mph100%29.89 "Hg0 mi
11:50 PM
Sun, Jul 5
63 °FFog.5 mph100%29.86 "Hg0 mi
11:20 PM63 °FFog.2 mph100%29.86 "Hg0 mi
10:50 PM63 °FFog.3 mph100%29.86 "Hg0 mi
10:20 PM63 °FFog.2 mph94%29.86 "Hg1 mi
9:50 PM64 °FSnow. Scattered clouds.5 mph94%29.89 "Hg4 mi
9:20 PM66 °FClear.3 mph88%29.89 "Hg6 mi
8:50 PM66 °FSunny.3 mph88%29.89 "Hg10 mi
8:20 PM68 °FSunny.5 mph83%29.89 "Hg10 mi
7:50 PM68 °FSunny.5 mph83%29.92 "Hg10 mi
7:20 PM70 °FPassing clouds.5 mph73%29.92 "HgN/A
6:50 PM72 °FPassing clouds.6 mph69%29.95 "HgN/A
6:20 PM72 °FPassing clouds.6 mph61%29.95 "HgN/A
5:50 PM72 °FSunny.8 mph65%29.95 "Hg10 mi
5:20 PM72 °FSunny.8 mph65%29.98 "Hg10 mi
4:50 PM73 °FSunny.10 mph61%29.98 "Hg10 mi
4:20 PM73 °FScattered clouds.9 mph65%29.98 "HgN/A
3:50 PM73 °FPassing clouds.7 mph65%30.01 "HgN/A
3:20 PM72 °FPassing clouds.8 mph73%30.01 "HgN/A
2:50 PM72 °FPassing clouds.7 mph73%30.01 "HgN/A
2:20 PM70 °FScattered clouds.8 mph78%30.04 "HgN/A
1:50 PM70 °FScattered clouds.7 mph73%30.04 "HgN/A
1:20 PM70 °FPassing clouds.8 mph69%30.04 "HgN/A
12:50 PM72 °FSunny.7 mph69%30.04 "Hg10 mi
12:20 PM70 °FScattered clouds.6 mph73%30.04 "HgN/A
11:50 AM70 °FScattered clouds.5 mph78%30.04 "HgN/A
11:20 AM68 °FScattered clouds.3 mph83%30.04 "HgN/A
10:50 AM68 °FScattered clouds.5 mph83%30.04 "HgN/A
10:20 AM68 °FPartly sunny.3 mph78%30.07 "HgN/A
9:50 AM66 °FPartly sunny.1 mph83%30.07 "HgN/A
9:20 AM64 °FPartly sunny.2 mph88%30.07 "HgN/A
8:50 AM61 °FFog.2 mph100%30.07 "Hg4 mi
8:20 AM61 °FLow clouds.2 mph100%30.07 "Hg1 mi
7:50 AM59 °FFog.2 mph100%30.07 "Hg0 mi
7:20 AM59 °FFog.2 mph100%30.07 "Hg0 mi
6:50 AM59 °FFog.2 mph100%30.07 "Hg1 mi
6:20 AM59 °FFog.3 mph100%30.07 "Hg1 mi
5:50 AM59 °FFog.3 mph100%30.07 "Hg1 mi
5:20 AM59 °FFog.3 mph100%30.07 "Hg1 mi
Weather by CustomWeather, © 2015

See weather overviewHow to use our weather pages